Location: Unspecified
(0.0000°N, 0.0000°E)
Time: 09:34:09
(UTC+00:00)

Vanguard 2 Rocket - Pass Details

Date: 08 October 2022
Orbit: 553 x 3312 km, 32.9° (Epoch: 28 November)

Event Time Altitude Azimuth Distance (km) Brightness Sun altitude
Rises 05:57:26 0° 298° (WNW) 3,005 9.0 2.4°
Reaches altitude 10° 05:59:58 10° 293° (WNW) 1,933 8.0 3.1°
Maximum altitude 06:04:00 54° 215° (SW) 673 6.2 4.1°
Drops below altitude 10° 06:07:56 10° 137° (SE) 1,885 9.4 5.1°
Sets 06:10:23 0° 132° (SE) 2,919 10.5 5.7°
